This is the latest recevied weather packets stored in our database for station/object HB9BTL-13. If no packets are shown the sender has not sent any weather packets the latest 10 day(s).
| Time | Temp. | Humidity | Pressure | Rain* | Wind** | Luminosity | Snow |
|---|---|---|---|---|---|---|---|
| 1777139829 | 20° C | 39% | 1016.6 hPa | - | - | - | - |
| 1777138923 | 20.56° C | 36% | 1016.5 hPa | - | - | - | - |
| 1777138018 | 21.11° C | 36% | 1016.3 hPa | - | - | - | - |
| 1777137113 | 21.67° C | 34% | 1016.3 hPa | - | - | - | - |
| 1777136207 | 21.67° C | 32% | 1016.3 hPa | - | - | - | - |
| 1777135302 | 22.22° C | 33% | 1016.3 hPa | - | - | - | - |
| 1777134396 | 22.78° C | 32% | 1016.4 hPa | - | - | - | - |
| 1777133491 | 22.78° C | 29% | 1016.4 hPa | - | - | - | - |
| 1777132585 | 22.78° C | 27% | 1016.3 hPa | - | - | - | - |
| 1777131680 | 23.33° C | 25% | 1016.5 hPa | - | - | - | - |
| 1777130774 | 22.78° C | 29% | 1016.4 hPa | - | - | - | - |
| 1777129869 | 22.78° C | 31% | 1016.4 hPa | - | - | - | - |
| 1777128964 | 22.78° C | 32% | 1016.4 hPa | - | - | - | - |
| 1777128058 | 22.78° C | 32% | 1016.3 hPa | - | - | - | - |
| 1777127153 | 22.78° C | 33% | 1016.5 hPa | - | - | - | - |
| 1777126247 | 22.78° C | 33% | 1016.5 hPa | - | - | - | - |
| 1777125343 | 22.22° C | 35% | 1016.5 hPa | - | - | - | - |
| 1777124437 | 22.78° C | 34% | 1016.4 hPa | - | - | - | - |
| 1777123532 | 22.22° C | 32% | 1016.5 hPa | - | - | - | - |
| 1777122627 | 21.67° C | 35% | 1016.5 hPa | - | - | - | - |
| 1777121721 | 21.67° C | 36% | 1016.6 hPa | - | - | - | - |
| 1777120816 | 22.22° C | 37% | 1016.7 hPa | - | - | - | - |
| 1777119910 | 21.67° C | 37% | 1016.7 hPa | - | - | - | - |
| 1777119005 | 21.11° C | 42% | 1016.8 hPa | - | - | - | - |
| 1777118099 | 20° C | 40% | 1017 hPa | - | - | - | - |
* Rain since midnight (hover to see other rain measurements)
** Current wind speed in m/s (hover to see current wind gust speed)